Date String (YYYY-MM-DD hh:mm:ss) UTC,Instrument flags,Ambient pressure (hPa),Sample flow (lpm),Bypass flow (lpm),Sample temperature (°C),Ambient temperature (°C),ASC tube jacket temperature (°C),LED temperature (°C),Box temperature (°C),Sample RH (%),Mass concentration (μg/m³),Mass concentration (μg/m³)
DateTimeUTC,F1_M11,P_M11,Q1_M11,Q2_M11,T1_M11,T2_M11,T3_M11,T4_M11,T5_M11,U1_M11,X0_M11,X2_M11
2021-08-12 00:00:00,FlowAlarm;OPCInstrumentWarning,0826.7,5.00,0.00,28.7,27.1,00.0,37.9,30.7,19.5,0045.54,0029.39
2021-08-12 00:01:00,FlowAlarm;OPCInstrumentWarning,0826.7,5.01,0.00,28.8,27.5,00.0,37.9,30.9,18.7,0045.43,0029.32
2021-08-12 00:02:00,FlowAlarm;OPCInstrumentWarning,0826.7,4.99,0.00,28.9,27.8,00.0,37.9,31.0,18.8,0044.72,0029.31
2021-08-12 00:03:00,FlowAlarm;OPCInstrumentWarning,0826.7,5.01,0.00,28.9,26.9,00.0,37.9,30.7,18.4,0045.13,0029.30
2021-08-12 00:04:00,FlowAlarm;OPCInstrumentWarning,0826.7,5.01,0.00,28.8,25.7,00.0,37.9,30.4,19.1,0045.18,0029.22
2021-08-12 00:05:00,FlowAlarm;OPCInstrumentWarning,0826.7,4.99,0.00,28.7,25.9,00.0,37.9,30.4,19.9,0046.52,0029.18
2021-08-12 00:06:00,FlowAlarm;OPCInstrumentWarning,0826.7,5.00,0.00,28.7,26.3,00.0,37.9,30.5,19.6,0047.45,0029.21
2021-08-12 00:07:00,FlowAlarm;OPCInstrumentWarning,0826.7,5.00,0.00,28.7,26.8,00.0,37.9,30.6,20.1,0047.36,0029.24
2021-08-12 00:08:00,FlowAlarm;OPCInstrumentWarning,0826.8,5.00,0.00,28.7,27.2,00.0,37.9,30.7,21.2,0047.32,0029.27
2021-08-12 00:09:00,FlowAlarm;OPCInstrumentWarning,0826.8,5.00,0.00,28.8,27.6,00.0,37.9,30.9,21.0,0046.69,0029.26
2021-08-12 00:10:00,FlowAlarm;OPCInstrumentWarning,0826.7,5.01,0.00,28.9,27.9,00.0,37.9,31.0,20.9,0047.82,0029.30
2021-08-12 00:11:00,FlowAlarm;OPCInstrumentWarning,0826.7,4.98,0.00,28.9,28.2,00.0,38.0,31.1,21.8,0048.75,0029.30
2021-08-12 00:12:00,FlowAlarm;OPCInstrumentWarning,0826.7,5.00,0.00,29.0,27.2,00.0,38.0,30.8,21.4,0049.74,0029.30
2021-08-12 00:13:00,FlowAlarm;OPCInstrumentWarning,0826.7,5.00,0.00,28.9,25.7,00.0,37.9,30.5,20.5,0049.44,0029.45
2021-08-12 00:14:00,FlowAlarm;OPCInstrumentWarning,0826.7,5.01,0.00,28.8,25.8,00.0,37.9,30.5,20.1,0049.38,0029.50
2021-08-12 00:15:00,FlowAlarm;OPCInstrumentWarning,0826.7,5.00,0.00,28.7,26.2,00.0,37.9,30.5,21.4,0049.85,0029.55
2021-08-12 00:16:00,FlowAlarm;OPCInstrumentWarning,0826.7,5.00,0.00,28.7,26.6,00.0,37.9,30.6,21.3,0048.44,0029.63
2021-08-12 00:17:00,FlowAlarm;OPCInstrumentWarning,0826.8,4.99,0.00,28.8,27.1,00.0,37.9,30.8,21.4,0047.95,0029.67
2021-08-12 00:18:00,FlowAlarm;OPCInstrumentWarning,0826.8,4.99,0.00,28.8,27.5,00.0,37.9,30.9,21.4,0048.78,0029.73
2021-08-12 00:19:00,FlowAlarm;OPCInstrumentWarning,0826.8,5.01,0.00,28.9,27.9,00.0,37.9,31.0,20.8,0049.79,0029.72
2021-08-12 00:20:00,FlowAlarm;OPCInstrumentWarning,0826.7,4.99,0.00,29.0,27.8,00.0,38.0,31.0,20.5,0050.25,0029.70
2021-08-12 00:21:00,FlowAlarm;OPCInstrumentWarning,0826.7,5.01,0.00,28.9,26.3,00.0,37.9,30.6,20.3,0050.54,0029.79
2021-08-12 00:22:00,FlowAlarm;OPCInstrumentWarning,0826.7,4.99,0.00,28.8,25.6,00.0,37.9,30.4,20.3,0050.33,0029.93
2021-08-12 00:23:00,FlowAlarm;OPCInstrumentWarning,0826.7,5.01,0.00,28.7,26.0,00.0,37.9,30.5,21.1,0049.55,0029.92
2021-08-12 00:24:00,FlowAlarm;OPCInstrumentWarning,0826.7,5.00,0.00,28.7,26.4,00.0,37.9,30.5,21.3,0050.16,0029.77
2021-08-12 00:25:00,FlowAlarm;OPCInstrumentWarning,0826.8,5.00,0.00,28.7,26.8,00.0,37.9,30.6,21.3,0050.91,0029.74
2021-08-12 00:26:00,FlowAlarm;OPCInstrumentWarning,0826.8,5.01,0.00,28.8,27.3,00.0,37.9,30.8,21.6,0051.02,0029.77
2021-08-12 00:27:00,FlowAlarm;OPCInstrumentWarning,0826.8,5.00,0.00,28.8,27.6,00.0,37.9,30.9,21.5,0051.89,0029.78
2021-08-12 00:28:00,FlowAlarm;OPCInstrumentWarning,0826.8,4.98,0.00,28.9,28.0,00.0,37.9,31.0,21.0,0052.93,0029.77
2021-08-12 00:29:00,FlowAlarm;OPCInstrumentWarning,0826.8,5.01,0.00,28.9,27.2,00.0,38.0,30.8,21.0,0053.34,0029.71
2021-08-12 00:30:00,FlowAlarm;OPCInstrumentWarning,0826.8,5.01,0.00,28.8,25.9,00.0,37.9,30.4,20.7,0053.25,0029.70
2021-08-12 00:31:00,FlowAlarm;OPCInstrumentWarning,0826.8,4.99,0.00,28.7,25.9,00.0,37.9,30.4,20.8,0053.85,0029.69
2021-08-12 00:32:00,FlowAlarm;OPCInstrumentWarning,0826.7,5.00,0.00,28.7,26.2,00.0,37.9,30.5,21.2,0052.71,0029.64
2021-08-12 00:33:00,FlowAlarm;OPCInstrumentWarning,0826.7,5.01,0.00,28.7,26.7,00.0,37.9,30.5,21.5,0053.24,0029.54
2021-08-12 00:34:00,FlowAlarm;OPCInstrumentWarning,0826.7,5.01,0.00,28.7,27.1,00.0,37.9,30.7,21.2,0053.46,0029.57
2021-08-12 00:35:00,FlowAlarm;OPCInstrumentWarning,0826.8,4.98,0.00,28.8,27.5,00.0,37.9,30.8,20.9,0052.20,0029.57
2021-08-12 00:36:00,FlowAlarm;OPCInstrumentWarning,0826.8,5.00,0.00,28.8,27.8,00.0,37.9,30.9,21.0,0051.34,0029.51
2021-08-12 00:37:00,FlowAlarm;OPCInstrumentWarning,0826.8,5.02,0.00,28.9,27.8,00.0,37.9,30.9,20.6,0050.96,0029.37
2021-08-12 00:38:00,FlowAlarm;OPCInstrumentWarning,0826.7,4.99,0.00,28.9,26.4,00.0,37.9,30.6,20.8,0051.32,0029.35
2021-08-12 00:39:00,FlowAlarm;OPCInstrumentWarning,0826.7,5.01,0.00,28.7,25.6,00.0,37.9,30.3,21.0,0051.55,0029.33
2021-08-12 00:40:00,FlowAlarm;OPCInstrumentWarning,0826.7,4.99,0.00,28.7,25.9,00.0,37.9,30.4,20.7,0050.97,0029.32
2021-08-12 00:41:00,FlowAlarm;OPCInstrumentWarning,0826.7,4.99,0.00,28.6,26.3,00.0,37.9,30.5,21.1,0050.70,0029.27
2021-08-12 00:42:00,FlowAlarm;OPCInstrumentWarning,0826.8,5.00,0.00,28.6,26.8,00.0,37.9,30.6,20.8,0050.06,0029.31
2021-08-12 00:43:00,FlowAlarm;OPCInstrumentWarning,0826.8,5.01,0.00,28.7,27.2,00.0,37.9,30.7,20.6,0050.02,0029.22
2021-08-12 00:44:00,FlowAlarm;OPCInstrumentWarning,0826.8,4.99,0.00,28.8,27.6,00.0,37.9,30.8,20.6,0049.55,0029.22
2021-08-12 00:45:00,FlowAlarm;OPCInstrumentWarning,0826.8,5.02,0.00,28.8,27.9,00.0,37.9,31.0,20.2,0048.25,0029.19
2021-08-12 00:46:00,FlowAlarm;OPCInstrumentWarning,0826.8,4.99,0.00,28.9,28.2,00.0,37.9,31.1,20.2,0048.50,0029.17
2021-08-12 00:47:00,FlowAlarm;OPCInstrumentWarning,0826.8,4.99,0.00,29.0,27.5,00.0,37.9,30.9,20.2,0048.32,0029.19
2021-08-12 00:48:00,FlowAlarm;OPCInstrumentWarning,0826.8,5.01,0.00,28.8,26.0,00.0,37.9,30.4,20.1,0049.26,0029.25
2021-08-12 00:49:00,FlowAlarm;OPCInstrumentWarning,0826.8,5.01,0.00,28.7,25.8,00.0,37.9,30.3,19.8,0048.36,0029.17
2021-08-12 00:50:00,FlowAlarm;OPCInstrumentWarning,0826.8,4.99,0.00,28.7,26.2,00.0,37.9,30.5,20.0,0047.14,0029.08
2021-08-12 00:51:00,FlowAlarm;OPCInstrumentWarning,0826.8,5.01,0.00,28.7,26.6,00.0,37.9,30.5,20.4,0046.92,0029.04
2021-08-12 00:52:00,FlowAlarm;OPCInstrumentWarning,0826.8,5.00,0.00,28.7,27.0,00.0,37.9,30.6,20.6,0046.28,0029.15
2021-08-12 00:53:00,FlowAlarm;OPCInstrumentWarning,0826.9,4.98,0.00,28.7,27.4,00.0,37.9,30.8,20.7,0046.05,0029.16
2021-08-12 00:54:00,FlowAlarm;OPCInstrumentWarning,0826.8,5.01,0.00,28.8,27.8,00.0,37.9,30.9,20.5,0045.65,0029.23
2021-08-12 00:55:00,FlowAlarm;OPCInstrumentWarning,0826.8,4.98,0.00,28.9,28.1,00.0,37.9,31.1,20.6,0044.98,0029.24
2021-08-12 00:56:00,FlowAlarm;OPCInstrumentWarning,0826.8,5.01,0.00,29.0,28.2,00.0,38.0,31.1,20.5,0044.96,0029.27
2021-08-12 00:57:00,FlowAlarm;OPCInstrumentWarning,0826.8,4.99,0.00,29.0,27.0,00.0,38.0,30.8,20.5,0048.08,0029.39
2021-08-12 00:58:00,FlowAlarm;OPCInstrumentWarning,0826.8,4.99,0.00,28.8,25.8,00.0,38.0,30.4,20.7,0048.42,0029.40
2021-08-12 00:59:00,FlowAlarm;OPCInstrumentWarning,0826.8,5.01,0.00,28.8,26.0,00.0,38.0,30.5,21.0,0047.93,0029.49
